User: anonymous   Login
Location: Unspecified
(0.0000°N, 0.0000°E)
Time: 00:01:27
(UTC+00:00)
Language:

STARLINK-34259 - Orbit

View from above orbital plane
View from above orbital plane
View from above satellite
View from above satellite

Ground track
Ground track

The orbit is defined by the following mean orbital elements,

1 65368U          26145.48375728 +.00000000 +00000-0 +10585-2 0 00004
2 65368  53.1583 171.4114 0001587  90.2751 269.8433 15.34379580    09
Epoch (UTC): 25 May 2026 11:36:36
Eccentricity: 0.0001587
inclination: 53.1583°
perigee height: 462 km
apogee height: 464 km
right ascension of ascending node: 171.4114°
argument of perigee: 90.2751°
revolutions per day: 15.34379580
mean anomaly at epoch: 269.8433°

The dashed part of the orbit path shows where the satellite is in the earth's shadow,  

DLR